Location: Allie Creek
(37.5926°N, 89.8526°W)
Time: 09:55:13
(UTC+00:00)

ARIANE 6 FM1 Upper Stage - Visible Passes

Search period start: 21 January 2026 00:00
Search period end: 31 January 2026 00:00
Orbit: 522 x 610 km, 62.0° (Epoch: 20 January)

Date Brightness Start Highest point End Pass type
(mag) Time Alt. Az. Time Alt. Az. Time Alt. Az.
21 Jan 4.1 01:34:09 10° WSW 01:37:06 34° W 01:37:06 34° W visible
21 Jan 3.7 23:55:53 10° S 23:59:20 26° ESE 00:01:59 14° ENE visible
22 Jan 4.4 01:34:45 10° WSW 01:38:02 27° NW 01:38:02 27° NW visible
22 Jan 3.1 23:55:32 10° S 23:59:24 41° ESE 00:02:50 12° NE visible
23 Jan 4.8 01:35:34 10° W 01:38:33 19° NW 01:38:53 19° NW visible
23 Jan 2.6 23:55:25 10° SSW 23:59:30 65° ESE 00:03:29 10° NE visible
24 Jan 5.2 01:36:43 10° WNW 01:38:52 14° NW 01:39:38 13° NNW visible
24 Jan 2.7 23:55:30 10° SW 23:59:37 80° NW 00:03:38 10° NNE visible
25 Jan 3.4 23:55:45 10° SW 23:59:45 51° NW 00:03:41 10° NNE visible
26 Jan 4.1 23:56:12 10° WSW 23:59:56 33° NW 00:03:37 10° NNE visible
27 Jan 4.7 23:56:49 10° W 00:00:08 23° NW 00:03:25 10° N visible
28 Jan 5.1 23:57:42 10° W 00:00:23 17° NW 00:03:03 10° N visible
29 Jan 5.2 23:59:01 10° WNW 00:00:41 12° NW 00:02:21 10° NNW visible
